sat.trackr.live / text

‹ back to catalog

STARLINK-5293

NORAD 55295 · 2023-010AC

PAYLOAD ACTIVE UNKNOWN

§ Identity

Operator
Country
US
Launch date
2023-01-19
Launch site
AFWTR
Launch vehicle
Mass (kg)
RCS (m²)

Purposes: comms

External: N2YO · Heavens-Above · Gunter

§ Orbital elements

Epoch: 2026-09-20T22:00:03.000096Z

Period
95.71 min
Inclination
70.0006°
Eccentricity
0.0002032
Mean motion
15.04523336 rev/d
Perigee alt
551.6 km
Apogee alt
554.4 km
Semi-major
6,931.1 km
B*
7.9856e-3
RAAN
272.3012°
Arg perigee
208.2201°
Mean anomaly
277.1535°
Rev number
571

§ Raw data

STARLINK-52931 55295U 23010AC  26263.91670139  .00113833  00000+0  79856-2 0  99922 55295  70.0006 272.3012 0002032 208.2201 277.1535 15.04523336  5715

JSON: /api/v1/satellites/55295 · /tle

For live sub-satellite position, see the globe view (requires WebGL).

§ Visibility from observer

Set your observer location to see the next 7 days of passes ≥ 10°. The values pass through the URL so the page stays shareable.

No JS? Fill the form by hand. The geolocation button needs JavaScript.